EW7004 Weather Reports


Display with metric or nautical units.
time (UTC)temp
F
wind
direction
speed
MPH
gust
MPH
rain 1hr
in
rain 24hr
in
rain mn
in
humidity
%
barometer
mb
20260507005903 79 305 6.0 12.0 0.00 0.00 0.00 34 1032.9
20260507005403 79 286 4.0 13.0 0.00 0.00 0.00 34 1032.9
20260507004903 78 306 6.0 10.0 0.00 0.00 0.00 33 1032.8
20260507004405 78 308 6.0 12.0 0.00 0.00 0.00 33 1032.9
20260507003903 79 308 5.0 9.0 0.00 0.00 0.00 33 1032.9
20260507003404 79 311 6.0 10.0 0.00 0.00 0.00 33 1032.8
20260507002403 79 318 5.0 12.0 0.00 0.00 0.00 33 1032.7
20260507001403 79 340 4.0 10.0 0.00 0.00 0.00 32 1032.7
20260507000903 79 296 6.0 12.0 0.00 0.00 0.00 32 1032.7
20260507000405 79 325 4.0 12.0 0.00 0.00 0.00 32 1032.7
20260506235903 79 310 5.0 12.0 0.00 0.00 0.00 32 1032.7
20260506235404 79 273 5.0 9.0 0.00 0.00 0.00 32 1032.6
20260506234404 79 291 8.0 12.0 0.00 0.00 0.00 33 1032.7
20260506233904 79 304 7.0 12.0 0.00 0.00 0.00 33 1032.7
20260506232903 79 311 6.0 10.0 0.00 0.00 0.00 33 1032.7
20260506231903 79 304 7.0 12.0 0.00 0.00 0.00 33 1032.8
20260506231403 79 316 6.0 12.0 0.00 0.00 0.00 33 1032.7
20260506230903 79 294 7.0 12.0 0.00 0.00 0.00 33 1032.8
20260506230403 79 325 8.0 13.0 0.00 0.00 0.00 33 1032.9
20260506225903 79 305 6.0 13.0 0.00 0.00 0.00 33 1032.8
20260506225403 79 306 6.0 12.0 0.00 0.00 0.00 33 1032.9
20260506224403 78 351 7.0 12.0 0.00 0.00 0.00 34 1033.0
20260506223903 79 316 8.0 12.0 0.00 0.00 0.00 33 1033.0
20260506222903 78 329 5.0 12.0 0.00 0.00 0.00 34 1033.1
20260506222404 78 350 2.0 8.0 0.00 0.00 0.00 33 1033.2
20260506221904 78 248 0.0 3.0 0.00 0.00 0.00 34 1033.2
20260506221403 78 281 5.0 10.0 0.00 0.00 0.00 33 1033.4
20260506220903 78 207 5.0 9.0 0.00 0.00 0.00 34 1033.4
20260506220404 77 276 2.0 3.0 0.00 0.00 0.00 35 1033.6
20260506215903 77 304 4.0 7.0 0.00 0.00 0.00 34 1033.8
20260506214904 77 279 5.0 9.0 0.00 0.00 0.00 35 1033.8
20260506214403 76 10 4.0 6.0 0.00 0.00 0.00 35 1033.8
20260506213904 76 316 4.0 8.0 0.00 0.00 0.00 36 1033.9
20260506213403 76 261 3.0 8.0 0.00 0.00 0.00 35 1034.0
20260506212904 76 316 4.0 8.0 0.00 0.00 0.00 35 1034.1
20260506212404 76 274 6.0 10.0 0.00 0.00 0.00 35 1034.2
20260506211903 76 326 5.0 9.0 0.00 0.00 0.00 35 1034.2
20260506211404 76 246 4.0 6.0 0.00 0.00 0.00 35 1034.3
20260506210903 76 252 5.0 8.0 0.00 0.00 0.00 36 1034.4
20260506210403 75 329 1.0 3.0 0.00 0.00 0.00 37 1034.4
20260506205403 74 191 3.0 7.0 0.00 0.00 0.00 36 1034.6
20260506204404 73 346 3.0 8.0 0.00 0.00 0.00 37 1034.7
20260506202903 73 16 3.0 9.0 0.00 0.00 0.00 36 1034.9
20260506201403 73 284 1.0 3.0 0.00 0.00 0.00 39 1035.2
20260506200903 72 356 3.0 5.0 0.00 0.00 0.00 39 1035.2
20260506200404 72 337 3.0 6.0 0.00 0.00 0.00 39 1035.3
20260506194904 71 266 3.0 7.0 0.00 0.00 0.00 40 1035.6
20260506194404 71 230 5.0 10.0 0.00 0.00 0.00 41 1035.7
20260506193404 71 176 2.0 6.0 0.00 0.00 0.00 44 1035.7
20260506192903 71 197 3.0 6.0 0.00 0.00 0.00 41 1035.9
20260506192404 71 156 3.0 5.0 0.00 0.00 0.00 43 1035.9
20260506191903 70 215 4.0 6.0 0.00 0.00 0.00 43 1036.1
20260506191404 70 176 2.0 7.0 0.00 0.00 0.00 44 1036.1
20260506190904 70 259 3.0 8.0 0.00 0.00 0.00 44 1036.1
20260506190403 69 194 1.0 6.0 0.00 0.00 0.00 47 1036.3
20260506185903 69 262 2.0 7.0 0.00 0.00 0.00 47 1036.2
20260506185404 68 175 1.0 3.0 0.00 0.00 0.00 48 1036.4
20260506184903 67 215 2.0 8.0 0.00 0.00 0.00 48 1036.4
20260506184404 67 264 2.0 3.0 0.00 0.00 0.00 49 1036.5
20260506183403 66 258 5.0 9.0 0.00 0.00 0.00 50 1036.6
20260506182904 66 225 4.0 7.0 0.00 0.00 0.00 50 1036.7
20260506181403 65 143 2.0 3.0 0.00 0.00 0.00 51 1036.9
20260506180903 64 265 4.0 9.0 0.00 0.00 0.00 52 1037.0
20260506180404 64 307 2.0 8.0 0.00 0.00 0.00 54 1036.9
20260506175903 64 306 5.0 8.0 0.00 0.00 0.00 53 1037.0
20260506175404 64 280 3.0 9.0 0.00 0.00 0.00 52 1037.0
20260506174403 63 227 3.0 5.0 0.00 0.00 0.00 54 1036.9
20260506173903 63 298 3.0 8.0 0.00 0.00 0.00 55 1037.0
20260506173403 63 279 3.0 6.0 0.00 0.00 0.00 55 1037.0
20260506172403 62 284 3.0 7.0 0.00 0.00 0.00 54 1037.1
20260506171404 62 334 1.0 6.0 0.00 0.00 0.00 56 1037.1
20260506170903 62 313 4.0 8.0 0.00 0.00 0.00 56 1037.1
20260506170403 62 279 3.0 7.0 0.00 0.00 0.00 56 1037.1
20260506165903 61 355 2.0 5.0 0.00 0.00 0.00 56 1037.1
20260506165404 61 324 3.0 7.0 0.00 0.00 0.00 58 1037.1
20260506164903 61 281 3.0 6.0 0.00 0.00 0.00 59 1037.1
20260506163903 60 298 2.0 6.0 0.00 0.00 0.00 61 1037.2
20260506163403 60 318 2.0 5.0 0.00 0.00 0.00 62 1037.1
20260506162903 60 309 2.0 3.0 0.00 0.00 0.00 63 1037.1
20260506162403 60 76 0.0 2.0 0.00 0.00 0.00 64 1037.1
20260506161904 59 74 1.0 3.0 0.00 0.00 0.00 66 1037.1
20260506161403 59 0 0.0 0.0 0.00 0.00 0.00 67 1037.1
20260506160903 58 0 0.0 0.0 0.00 0.00 0.00 68 1037.1
20260506160404 58 0 0.0 3.0 0.00 0.00 0.00 69 1037.1
20260506155903 58 0 2.0 3.0 0.00 0.00 0.00 71 1037.1
20260506155403 57 5 0.0 0.0 0.00 0.00 0.00 73 1037.1
20260506154903 57 5 0.0 0.0 0.00 0.00 0.00 74 1037.1
20260506154403 56 5 0.0 0.0 0.00 0.00 0.00 75 1037.1
20260506153903 56 5 0.0 0.0 0.00 0.00 0.00 76 1037.1
20260506153404 55 5 0.0 0.0 0.00 0.00 0.00 77 1037.1
20260506152903 55 278 0.0 0.0 0.00 0.00 0.00 78 1037.1
20260506152403 55 278 0.0 0.0 0.00 0.00 0.00 80 1037.1
20260506151903 54 278 0.0 0.0 0.00 0.00 0.00 81 1037.2
20260506151403 54 279 0.0 0.0 0.00 0.00 0.00 81 1037.2
20260506150903 53 278 0.0 0.0 0.00 0.00 0.00 81 1037.2
20260506150403 53 278 0.0 0.0 0.00 0.00 0.00 82 1037.2
20260506145403 52 278 0.0 0.0 0.00 0.05 0.00 83 1037.2
20260506144903 51 278 0.0 0.0 0.00 0.08 0.00 83 1037.2
20260506144403 51 278 0.0 0.0 0.00 0.08 0.00 84 1037.3
20260506143903 50 278 0.0 0.0 0.00 0.08 0.00 84 1037.3
20260506143403 50 278 0.0 0.0 0.00 0.08 0.00 84 1037.2
20260506142903 50 278 0.0 0.0 0.00 0.08 0.00 85 1037.1
20260506142403 49 278 0.0 0.0 0.00 0.08 0.00 85 1037.2
20260506141904 49 241 0.0 0.0 0.00 0.08 0.00 86 1037.1
20260506141403 49 138 0.0 0.0 0.00 0.08 0.00 86 1037.1
20260506140903 49 138 0.0 0.0 0.00 0.08 0.00 86 1037.0
20260506140403 48 138 0.0 0.0 0.00 0.08 0.00 86 1037.0
20260506135903 48 138 0.0 0.0 0.00 0.08 0.00 86 1037.0
20260506135404 48 138 1.0 2.0 0.00 0.08 0.00 86 1037.0
20260506134903 48 138 0.0 0.0 0.00 0.08 0.00 86 1036.9
20260506134403 48 138 0.0 0.0 0.00 0.08 0.00 86 1036.9
20260506133904 47 138 0.0 0.0 0.00 0.08 0.00 86 1036.8
20260506133403 47 138 0.0 0.0 0.00 0.08 0.00 86 1036.8
20260506132903 47 138 0.0 0.0 0.00 0.08 0.00 86 1036.8
20260506132403 47 138 0.0 0.0 0.00 0.08 0.00 86 1036.7
20260506131903 47 138 0.0 0.0 0.00 0.08 0.00 85 1036.7
20260506131403 47 138 0.0 0.0 0.00 0.08 0.00 85 1036.6
20260506130904 47 138 0.0 0.0 0.00 0.08 0.00 85 1036.5
20260506130403 47 138 0.0 0.0 0.00 0.08 0.00 85 1036.5
20260506125903 48 138 0.0 0.0 0.00 0.09 0.00 85 1036.4
20260506125403 48 138 0.0 0.0 0.00 0.09 0.00 85 1036.4
20260506124903 48 138 0.0 0.0 0.00 0.09 0.00 85 1036.4
20260506124403 48 138 0.0 1.0 0.00 0.09 0.00 85 1036.4
20260506123904 48 138 0.0 0.0 0.00 0.09 0.00 85 1036.4
20260506123403 48 138 0.0 2.0 0.00 0.09 0.00 85 1036.3
20260506122903 48 138 1.0 2.0 0.00 0.09 0.00 85 1036.2
20260506122403 48 138 1.0 2.0 0.00 0.09 0.00 85 1036.3
20260506121904 48 138 0.0 2.0 0.00 0.09 0.00 85 1036.2
20260506121404 48 138 0.0 3.0 0.00 0.09 0.00 85 1036.2
20260506120904 48 138 1.0 3.0 0.00 0.09 0.00 85 1036.2
20260506120403 48 138 1.0 2.0 0.00 0.09 0.00 85 1036.2
20260506115903 49 138 1.0 3.0 0.00 0.09 0.00 85 1036.1
20260506115404 49 138 1.0 3.0 0.00 0.09 0.00 85 1036.2
20260506114403 49 138 0.0 2.0 0.00 0.09 0.00 85 1036.2
20260506113903 49 138 1.0 3.0 0.00 0.09 0.00 85 1036.2
20260506113403 49 138 2.0 3.0 0.00 0.09 0.00 85 1036.2
20260506112404 49 138 2.0 3.0 0.00 0.09 0.00 85 1036.2
20260506111903 50 138 2.0 3.0 0.00 0.09 0.00 85 1036.1
20260506111403 50 138 2.0 3.0 0.00 0.09 0.00 84 1036.2
20260506110904 50 138 2.0 3.0 0.00 0.09 0.00 84 1036.1
20260506110403 50 138 0.0 1.0 0.00 0.09 0.00 84 1036.1
20260506105904 51 138 0.0 0.0 0.00 0.09 0.00 84 1036.0
20260506105403 51 138 0.0 0.0 0.00 0.09 0.00 84 1036.1
20260506104903 51 138 0.0 0.0 0.00 0.09 0.00 84 1036.1
20260506104404 51 138 0.0 0.0 0.00 0.09 0.00 84 1036.1
20260506103403 51 138 0.0 0.0 0.00 0.09 0.00 84 1036.1
20260506102903 51 138 0.0 0.0 0.00 0.09 0.00 83 1036.0
20260506102403 51 138 0.0 0.0 0.00 0.09 0.00 83 1036.0
20260506101904 51 138 0.0 2.0 0.00 0.09 0.00 82 1036.0
20260506101404 52 138 0.0 0.0 0.00 0.09 0.00 82 1036.0
20260506100403 52 138 0.0 0.0 0.00 0.09 0.00 81 1036.0
20260506095903 52 138 0.0 0.0 0.00 0.09 0.00 81 1035.9
20260506094904 52 138 0.0 0.0 0.00 0.09 0.00 81 1035.9
20260506094403 52 138 0.0 0.0 0.00 0.09 0.00 81 1035.9
20260506093903 52 138 0.0 0.0 0.00 0.09 0.00 81 1036.0
20260506092904 53 138 0.0 0.0 0.00 0.09 0.00 80 1036.0
20260506092403 53 138 0.0 0.0 0.00 0.09 0.00 80 1036.0
20260506091404 53 138 0.0 0.0 0.00 0.09 0.00 79 1036.1
20260506090903 53 138 0.0 0.0 0.00 0.09 0.00 80 1036.2
20260506090403 53 138 0.0 0.0 0.00 0.09 0.00 79 1036.2
20260506085904 53 138 0.0 3.0 0.00 0.09 0.00 79 1036.3
20260506085403 53 138 1.0 2.0 0.00 0.09 0.00 79 1036.3
20260506084903 54 138 1.0 3.0 0.00 0.10 0.00 79 1036.3
20260506084403 54 138 2.0 3.0 0.00 0.10 0.00 78 1036.3
20260506083404 54 138 1.0 2.0 0.00 0.10 0.00 78 1036.4
20260506082904 54 138 1.0 2.0 0.00 0.10 0.00 78 1036.4
20260506082404 54 138 0.0 0.0 0.00 0.10 0.00 77 1036.4
20260506081903 54 138 0.0 2.0 0.00 0.10 0.00 77 1036.5
20260506081403 54 138 0.0 2.0 0.00 0.10 0.00 77 1036.5
20260506080404 54 138 0.0 2.0 0.00 0.10 0.00 76 1036.5
20260506073403 55 138 1.0 3.0 0.00 0.11 0.00 75 1036.8
20260506072404 55 138 0.0 2.0 0.00 0.11 0.00 75 1036.7
20260506071904 55 138 2.0 5.0 0.00 0.11 0.00 74 1036.7
20260506071403 55 158 2.0 3.0 0.00 0.11 0.00 74 1036.7
20260506070904 55 146 1.0 3.0 0.00 0.11 0.00 74 1036.6
20260506070404 55 146 2.0 3.0 0.00 0.11 0.00 74 1036.6
20260506062404 56 163 2.0 5.0 0.00 0.12 0.11 74 1036.2
20260506061904 56 189 1.0 6.0 0.00 0.12 0.11 75 1036.3
20260506061403 56 178 1.0 3.0 0.00 0.12 0.11 75 1036.3
20260506060904 56 190 0.0 0.0 0.00 0.12 0.11 75 1036.2
20260506060404 56 190 0.0 0.0 0.00 0.12 0.11 74 1036.2
20260506051404 57 219 3.0 6.0 0.00 0.12 0.11 73 1035.6
20260506050903 57 212 2.0 5.0 0.00 0.12 0.11 73 1035.5
20260506050403 57 218 5.0 6.0 0.00 0.12 0.11 72 1035.5
20260506044903 57 220 4.0 6.0 0.00 0.12 0.11 72 1035.3
20260506044403 57 196 1.0 3.0 0.00 0.12 0.11 72 1035.2
20260506043903 57 173 0.0 3.0 0.00 0.12 0.11 72 1035.1
20260506043403 57 202 4.0 7.0 0.00 0.12 0.11 71 1035.1
20260506042903 57 211 0.0 3.0 0.00 0.12 0.11 71 1035.1
20260506042403 57 211 1.0 3.0 0.00 0.12 0.11 71 1035.1
20260506040904 57 211 2.0 7.0 0.00 0.12 0.11 71 1034.7
20260506040403 57 156 2.0 5.0 0.00 0.12 0.11 70 1034.6
20260506035903 57 199 2.0 5.0 0.00 0.12 0.11 70 1034.6
20260506035403 58 134 2.0 7.0 0.00 0.12 0.11 69 1034.5
20260506034903 58 191 3.0 8.0 0.00 0.12 0.11 69 1034.5
20260506034403 58 157 3.0 5.0 0.00 0.12 0.11 68 1034.4
20260506033903 58 207 1.0 3.0 0.00 0.12 0.11 68 1034.3
20260506032903 58 196 3.0 7.0 0.00 0.12 0.11 67 1034.3
20260506032403 58 198 3.0 9.0 0.00 0.12 0.11 66 1034.2
20260506031903 58 205 2.0 6.0 0.00 0.12 0.11 66 1034.1
20260506031403 58 226 2.0 8.0 0.00 0.12 0.11 66 1034.1
20260506030903 58 211 5.0 9.0 0.00 0.12 0.11 66 1034.0
20260506025903 58 185 5.0 10.0 0.00 0.12 0.11 65 1033.8
20260506024903 58 212 6.0 12.0 0.00 0.12 0.11 64 1033.5
20260506023903 59 216 3.0 10.0 0.00 0.12 0.11 64 1033.3
20260506023403 59 212 5.0 10.0 0.00 0.12 0.11 64 1033.3
20260506022903 59 214 5.0 13.0 0.00 0.12 0.11 64 1033.2
20260506022403 59 215 6.0 12.0 0.00 0.12 0.11 64 1033.1
20260506021904 59 189 5.0 12.0 0.00 0.12 0.11 64 1033.1
20260506021404 59 198 7.0 13.0 0.00 0.12 0.11 64 1033.0
20260506020903 59 215 8.0 13.0 0.00 0.12 0.11 63 1033.0
20260506020403 59 201 6.0 12.0 0.00 0.12 0.11 63 1032.9
20260506015903 59 190 7.0 14.0 0.00 0.12 0.11 62 1032.8
20260506014403 59 223 7.0 13.0 0.00 0.12 0.11 62 1032.6
20260506013403 60 199 6.0 14.0 0.00 0.12 0.11 61 1032.4
20260506012903 60 204 7.0 14.0 0.00 0.12 0.11 60 1032.3
20260506012404 60 209 9.0 13.0 0.00 0.12 0.11 60 1032.3
20260506011903 60 219 7.0 12.0 0.00 0.12 0.11 59 1032.2
20260506010903 60 214 8.0 13.0 0.00 0.12 0.11 59 1032.3
20260506010403 60 216 7.0 14.0 0.00 0.12 0.11 59 1032.2